CAPE
0 0 0 0 0 0 0 0 0 0 0 0 0 0 0 0 0 0 0 0 0 0 0 0 0 14 352 463 564 994 1320 1732 1788 1836 2420 2442 2281 2223 1734 1842 1622 1414 1157 1188 1497 1358 1150 1610 1569 1268 1337 1163 1226 1256 1748 1502 1533 1760 2165 1537 1423 1941 2335 2241 1483 1294 1364 1695 1429 1700 1813 1911 2002 2137 2017 1964 1957 2152 2007 1964 1993 1802 1978 1733 1738 1555
0 0 0 0 0 0 0 0 0 0 0 0 0 0 0 0 0 0 0 0 0 0 0 0 0 0 16 172 397 215 1089 978 1330 1822 2087 2354 1895 1941 1741 1965 1450 845 327 367 336 462 812 963 1168 1106 1154 844 1102 1215 1441 1882 1922 2004 1406 1297 1589 1699 1539 1488 1346 1312 1151 1140 1343 1334 1468 1970 1392 1691 1931 1840 1930 1691 2172 1948 1417 1630 1527 1353 1298 1092
0 0 0 0 0 0 0 0 0 0 0 0 0 0 0 0 0 0 0 0 0 0 0 0 0 0 0 231 536 674 969 969 1287 1245 2134 2054 2139 1823 1402 1237 919 752 712 777 863 684 513 938 1484 1365 1225 1106 1019 1444 1375 1485 1259 1398 1432 1407 1601 1284 1396 1302 1270 1147 1082 1022 1038 1359 1438 1658 2254 2092 1985 1725 1563 1691 1792 1638 1305 1381 1236 1009 933 840
0 0 0 0 0 0 0 0 0 0 0 0 0 0 0 0 0 0 0 0 0 0 0 0 0 0 0 518 487 679 1096 779 941 1486 1427 1845 2366 2085 1259 912 915 728 688 545 496 680 892 943 1271 1395 1190 1130 846 980 1469 1367 1610 1522 1155 1439 1443 1170 1069 1182 1210 1007 1114 1115 1089 1255 1600 1715 1788 1798 1512 1396 1133 1765 1628 1306 1080 1048 886 618 804 728
0 0 0 0 0 0 0 0 0 0 0 0 0 0 0 0 0 0 0 0 0 0 0 0 0 0 0 190 453 741 859 692 945 1052 1852 2292 2352 2184 1611 1304 881 931 968 771 742 918 1052 1024 1146 1376 1321 1160 906 1149 1130 1178 1234 1410 1194 1109 1073 989 1160 1132 1000 1114 1224 1259 1218 1078 1769 1633 1497 1317 1276 1347 1513 1362 1159 1083 1086 900 666 663 666 518
0 0 0 0 0 0 0 0 0 0 0 0 0 0 0 0 0 0 0 0 0 0 0 0 0 0 0 132 626 961 1565 2158 2328 1978 2022 2231 2082 1969 1612 1588 1327 1207 1113 1070 986 976 1102 1365 980 1107 1137 814 713 1049 1158 1193 1189 1286 1228 1341 1125 1160 1223 1062 978 1085 1094 1075 976 1020 1416 1654 1818 1629 1542 1526 1470 1400 1367 1146 842 924 632 507 596 524
0 0 0 0 0 0 0 0 0 0 0 0 0 0 0 0 0 0 0 0 0 0 0 0 0 0 46 280 261 922 1234 2014 2401 2218 2266 2256 1865 1935 1946 1834 1590 1424 1407 1398 1328 1158 1096 1136 906 991 1002 988 930 1142 1151 1144 1202 1254 1334 1358 1485 1411 1184 907 1130 1189 994 765 657 1406 1455 1592 1504 1496 1425 1425 1287 1275 1016 1042 1011 712 546 301 332 389
0 0 0 0 0 0 0 0 0 0 0 0 0 0 0 0 0 0 0 0 0 0 0 0 0 0 100 123 149 612 772 1264 1006 1817 1561 1840 1709 1772 1646 1802 1610 1504 1562 1520 1553 1189 1125 1133 1054 1243 1150 1151 1128 1262 1276 1234 1266 1249 1344 1221 1596 1456 1130 1149 1364 1019 879 720 920 1633 1612 1630 1537 1375 1198 1395 1278 1063 1055 1034 711 538 406 377 157 236
0 0 0 0 0 0 0 0 0 0 0 0 0 0 0 0 0 0 0 0 0 0 0 0 0 0 0 54 302 432 252 197 576 1334 1463 1554 1360 1246 1719 1881 1765 1646 1821 1853 1821 1345 1367 1142 1414 1262 1208 1081 958 1179 1095 1244 1243 1328 1242 1304 1387 1640 1420 1553 1463 1354 1002 1014 1515 1462 1537 1271 1139 1194 1228 1042 954 1004 886 681 474 406 326 341 200 238
0 0 0 0 0 0 0 0 0 0 0 0 0 0 0 0 0 0 0 0 0 0 0 1 0 0 0 0 178 173 56 15 205 762 641 846 1088 973 1169 1430 1737 1709 1775 1524 1824 1372 1488 1618 1632 1354 1228 1186 1081 1210 1175 1179 1136 1161 1099 1317 1279 1296 1321 1271 1260 1140 1190 1615 1820 1505 1340 1372 1101 962 1010 1110 1098 949 681 544 447 361 366 343 313 415
0 0 0 0 0 0 0 0 0 0 0 0 0 0 0 0 0 0 0 0 0 0 0 0 0 0 0 0 95 228 136 60 15 181 526 1015 1542 1200 1104 866 1531 1820 1566 1513 1697 1748 1903 1779 1822 1619 1608 1449 1240 1218 1094 1160 1148 1142 1256 1196 1280 1250 1166 1221 1176 1297 991 1031 1254 1082 1320 1237 1228 1230 1174 899 736 507 417 300 224 218 237 330 323 231
0 0 0 0 0 0 0 0 0 0 0 0 0 0 0 0 0 0 0 0 0 0 0 0 0 0 0 0 0 94 97 75 78 242 452 481 964 652 928 1397 1764 1586 1639 1686 1599 1401 1786 1727 1682 1526 1528 1346 1237 1174 1044 854 1035 1160 1118 1099 1050 1110 1206 985 943 1050 1055 1293 1085 1237 1088 1005 964 911 729 569 464 351 322 276 208 166 146 206 269 185
11 0 0 0 0 0 0 0 0 0 0 0 0 0 0 0 0 0 0 0 0 0 0 0 0 0 0 0 0 21 80 105 74 65 129 108 359 619 534 773 1433 1463 1312 1499 1570 1821 1792 1615 1500 1614 1609 1452 1124 1092 969 912 1002 931 804 873 1047 1032 1099 1005 1047 976 995 1167 1064 959 894 663 658 681 510 391 258 250 163 113 126 152 147 211 223 207
18 0 0 0 0 0 0 0 0 0 0 0 0 0 0 0 0 0 0 0 0 0 0 0 0 0 0 0 0 2 182 130 69 143 41 72 232 367 352 939 1476 1366 1270 1382 1607 1905 1652 1549 1525 1603 1619 1388 1146 1000 887 950 923 901 830 772 917 935 1031 1066 737 924 931 927 920 838 706 608 434 466 340 308 276 180 95 146 158 81 74 96 123 181
33 1 0 0 0 0 0 0 0 0 0 0 0 0 0 0 0 0 0 0 0 0 0 0 0 0 0 0 0 0 1 2 3 15 10 186 393 632 617 1037 1289 1185 919 1299 1631 1589 1652 1660 1706 1623 1728 1450 1131 826 886 1021 902 859 796 734 750 772 858 1198 737 703 622 662 746 688 550 496 426 370 385 331 75 111 107 108 81 28 28 60 82 41
5 0 0 0 0 0 0 0 0 0 0 0 0 0 0 0 0 0 0 0 2 0 0 0 0 0 0 139 13 7 0 1 0 0 0 948 545 443 388 1360 1268 1277 897 1615 1434 1774 1648 1574 1698 1747 1806 1493 1180 1192 1165 1159 1232 1187 1057 865 840 860 875 639 631 636 540 519 357 422 400 324 325 388 360 223 15 24 90 40 15 8 13 24 20 9
1 1 0 0 0 0 0 0 0 0 0 0 0 0 0 0 0 0 0 3 5 0 0 0 0 0 0 274 0 0 58 114 177 117 85 682 258 288 823 1079 1457 1303 1501 1822 1588 1812 1800 1738 1783 1673 1704 1484 1317 1370 1312 1055 1223 1218 987 843 816 716 563 585 613 592 507 390 256 241 264 409 464 453 378 293 22 14 8 8 4 10 9 9 8 5
5 0 0 0 0 0 0 0 0 0 0 0 0 0 0 0 0 4 0 0 0 0 0 6 0 0 0 0 0 0 0 3 53 62 328 1417 849 591 1117 872 1267 1186 1337 1592 1785 1652 1706 1692 1573 1680 1686 1648 1469 1112 1388 1399 1206 1033 898 802 816 662 632 697 581 555 457 269 192 114 363 506 524 437 381 96 20 7 8 6 7 9 7 5 4 5
1 14 1 0 0 0 0 0 0 0 0 0 0 0 0 0 0 0 6 1 0 0 0 5 0 0 0 0 0 0 1 6 2 0 25 788 1262 1240 840 1078 1223 1290 2067 1701 1836 1731 1653 1616 1540 1534 1587 1575 1387 1039 1182 1122 1081 960 900 642 563 526 568 602 519 415 272 148 52 148 432 564 503 415 322 11 7 8 5 8 9 6 7 6 4 4
15 25 7 0 0 0 0 0 0 0 0 0 0 0 0 0 0 0 0 2 0 0 0 2 0 0 0 0 0 30 58 34 7 7 0 110 497 1708 2070 1591 1702 1976 2106 1870 1626 1437 1629 1555 1508 1548 1691 1666 1433 1190 1037 970 955 826 784 558 476 514 510 589 444 322 276 246 176 299 488 556 415 364 79 6 7 4 4 5 6 5 6 7 3 3
2 34 0 0 0 0 0 0 0 0 0 0 0 0 0 0 0 0 5 0 0 0 0 0 1 0 0 0 4 87 112 71 41 89 8 150 919 1478 1776 1514 1999 1761 2040 1838 1557 1404 1434 1426 1469 1440 1545 1505 1423 1113 1048 1085 905 599 484 436 451 493 640 524 409 399 378 292 35 310 508 509 320 43 10 8 6 8 6 5 4 5 5 3 4 3
10 24 13 0 0 0 0 0 0 0 0 0 0 0 0 0 0 0 0 0 0 0 0 0 0 0 0 0 0 71 34 115 26 113 58 272 947 1457 1510 1928 2006 1965 1966 1789 1531 1398 1533 1543 1481 1477 1476 1162 1198 1020 963 917 614 459 455 473 535 610 560 470 496 497 211 9 8 341 431 419 236 7 8 6 6 7 6 5 5 5 4 4 0 4
29 23 0 0 0 0 0 0 0 0 0 0 0 0 0 0 0 0 0 0 0 0 0 0 0 0 611 0 0 126 405 30 156 163 400 863 1151 1435 1789 2023 2169 2052 1898 1664 1417 1345 1534 1447 1226 1262 1015 963 936 1058 912 653 498 510 556 580 652 667 586 472 421 300 230 6 9 390 397 157 10 9 8 7 7 5 4 4 4 3 3 3 4 1
1 29 2 0 0 0 0 0 0 0 0 0 0 0 0 0 0 0 0 0 0 0 0 0 0 522 629 1693 625 204 647 746 639 136 240 1175 882 1442 1722 2094 2222 2166 1914 1620 1417 1437 1358 1307 1245 1129 993 796 743 817 557 480 514 524 568 640 721 723 512 388 348 318 298 163 127 368 321 9 10 6 7 8 4 4 4 4 4 4 4 3 4 3
0 1 0 0 0 0 0 0 0 0 0 0 0 0 0 0 0 0 0 0 0 0 0 0 0 17 690 1628 2046 830 649 752 696 282 309 1504 1151 1583 1543 1657 1718 1775 1609 1525 1259 1309 1234 982 783 762 825 868 690 530 425 457 508 480 610 644 769 658 428 345 314 306 288 242 328 341 292 13 10 8 8 5 4 4 4 4 2 2 3 4 3 2
0 2 3 0 0 0 0 0 0 0 0 0 0 0 0 0 0 0 0 0 0 0 0 0 0 910 1285 1485 1336 893 487 578 1019 1309 1134 1860 1894 1346 1498 1451 1834 1871 1611 1261 1201 1173 1067 873 716 753 905 886 705 657 546 601 570 524 614 711 756 598 417 360 341 298 266 316 338 355 88 11 9 5 3 3 4 4 4 3 3 1 3 4 2 2
0 8 17 5 0 0 0 0 0 0 0 0 0 0 0 0 0 0 0 0 0 0 0 0 0 612 628 1048 925 542 682 1132 1201 1342 1411 1297 1812 1779 1706 1641 1672 1592 1479 1390 1047 1078 1064 923 831 703 851 883 796 700 623 661 620 605 697 802 704 540 364 334 307 250 218 312 359 321 40 8 6 4 3 3 2 3 3 3 2 2 3 4 4 1
4 10 12 12 0 0 0 0 0 0 0 0 0 0 0 0 0 0 0 0 0 0 0 0 0 52 415 195 800 667 734 1340 1250 1449 1617 1042 1337 1917 1989 1727 1407 1346 1295 1365 1215 988 978 957 704 691 834 870 820 732 702 766 824 802 804 801 681 492 333 249 218 187 162 64 304 8 7 6 4 4 2 2 2 3 4 2 3 2 3 6 2 0
2 0 4 17 27 10 0 0 0 0 0 0 0 0 0 0 0 0 0 0 10 0 0 0 0 0 106 172 345 444 611 1180 1278 1710 1966 1951 1749 1794 1840 1559 1478 1308 1119 1196 1202 1089 1056 807 659 785 1079 1097 874 701 773 803 916 868 789 703 566 327 216 184 273 274 209 74 47 7 6 5 5 3 3 2 2 2 3 3 4 2 3 4 4 1
0 0 0 0 1 6 6 2 3 0 0 0 0 0 0 0 0 0 0 0 0 0 0 0 0 0 0 163 61 337 440 550 1051 1782 1880 1781 1623 1559 1560 1513 1546 1354 1208 1192 1154 947 863 825 994 1163 1196 1134 966 774 767 786 975 750 782 737 520 268 314 338 410 357 295 223 187 171 6 4 3 3 2 2 3 2 3 4 5 4 3 2 2 1
0 0 0 1 1 0 0 2 7 0 0 0 0 0 0 0 0 0 0 0 0 0 0 0 0 0 0 157 138 432 534 414 874 1739 1965 1823 1450 1407 1438 1516 1626 1460 1338 1332 1074 1122 1061 961 1020 1101 1089 1089 932 880 893 876 879 539 401 387 531 529 508 473 386 331 344 301 233 158 123 27 2 1 1 2 3 4 1 3 5 4 2 2 3 1
0 10 0 0 0 1 0 0 0 0 1 0 0 0 0 0 0 0 0 0 0 0 0 0 11 34 0 1506 1392 1403 1281 1111 1113 1632 1820 1670 1380 1284 1469 1554 1592 1301 1098 1047 1185 1318 1171 1010 988 992 1035 1028 933 947 942 835 620 228 250 186 119 38 136 292 316 298 314 331 304 226 132 106 32 1 1 2 2 4 3 4 4 3 2 4 1 0
1 5 1 0 0 0 0 0 0 0 0 0 0 0 0 0 0 0 0 0 0 0 0 0 0 5 361 709 1194 1221 1122 1516 1556 1396 1562 1640 1271 1116 1423 1392 1164 1408 1362 1133 1237 1209 1034 946 954 985 1026 1075 1016 876 634 686 446 295 436 391 312 204 132 182 246 271 290 303 278 243 173 2 1 1 2 2 4 5 3 4 4 2 2 2 0 0
6 7 0 0 0 0 0 0 0 0 0 0 556 789 0 0 0 0 0 0 0 0 0 0 0 0 546 571 285 1251 1705 1763 1697 1487 1416 1350 1284 1287 1363 1114 1098 1217 1377 1483 1360 1113 949 882 965 1034 1010 956 842 773 693 525 429 483 517 550 524 453 396 188 203 328 340 333 315 291 145 1 2 2 2 3 4 4 2 4 2 2 1 0 0 0
0 5 0 0 1 2 0 0 1 0 0 564 480 775 538 819 7 0 0 0 0 0 0 0 0 256 911 381 393 1044 1347 1604 1529 1446 1200 1360 1301 1278 1290 1266 1108 1050 1305 1444 1407 1363 1075 938 1007 1103 1020 839 688 590 511 528 558 580 519 446 396 359 156 190 384 214 220 213 354 289 132 3 2 1 3 2 2 3 4 1 2 0 0 0 0 0
0 0 1 1 0 2 0 0 0 0 358 340 911 315 707 536 604 144 0 0 0 0 0 0 0 54 608 1039 1086 1214 1622 1631 1444 1315 1178 1283 1389 1392 1275 1071 1064 992 1004 1014 1147 1136 888 929 1042 1061 854 600 485 494 476 481 455 410 453 428 431 413 295 265 294 309 323 271 257 177 74 2 2 2 2 1 3 3 2 2 0 0 0 0 0 0
0 0 0 1 0 10 0 0 0 86 510 830 192 651 92 7 33 1 3 0 1 0 0 0 0 3 622 1180 1207 1252 1550 1408 1369 1220 1292 1373 1406 1270 1177 1088 1244 1293 1177 1001 973 1050 1155 1227 1116 960 933 769 650 562 495 442 434 450 473 501 484 348 201 202 198 167 182 169 152 98 22 2 2 3 2 2 3 1 0 0 0 0 0 0 0 0
0 0 0 15 3 0 0 0 0 0 13 103 624 940 247 328 34 0 0 0 0 26 8 0 0 0 790 1366 1232 1394 1413 1300 1424 1330 1146 1355 1278 1262 1131 1155 1101 1361 1274 1185 1079 1026 1033 1112 1077 1038 997 919 714 559 500 486 497 464 456 433 318 175 142 141 42 15 17 3 26 32 4 1 2 3 2 0 0 0 0 0 0 0 0 0 0 0
7 1 0 0 3 0 0 0 0 0 6 168 852 521 607 756 527 216 5 0 0 0 0 11 10 46 967 1336 1446 1400 1238 831 1028 1462 1209 1075 1178 1214 1180 1056 916 1114 1278 1340 1376 1176 981 1015 1032 998 902 773 681 623 534 517 487 397 333 270 168 1 0 0 0 2 2 4 16 2 2 2 2 0 1 0 0 0 0 0 0 0 0 0 0 0
0 0 2 2 0 0 0 0 1 0 3 302 305 777 270 592 939 406 1 0 0 0 0 7 27 420 1006 1384 1577 1301 821 225 178 1444 1151 1194 1227 1226 1198 981 902 1118 1219 1330 1312 1264 1102 939 869 823 745 678 659 556 545 520 444 375 296 116 2 2 2 1 2 2 0 3 4 0 0 2 1 0 0 0 0 0 0 0 0 0 0 0 0 0
0 0 2 13 4 6 0 0 0 99 146 339 389 330 637 339 367 9 0 281 866 1197 454 156 135 592 1083 1471 1469 999 1395 1557 1160 1444 1137 1027 1147 1173 1035 884 782 942 1154 1188 1256 1256 1110 839 665 619 675 687 636 546 454 370 326 326 122 3 1 0 1 0 2 2 0 4 0 1 0 1 0 0 0 0 0 0 0 0 0 0 0 0 0 0
0 0 0 0 4 10 2 0 0 1 226 242 252 212 428 344 87 39 273 448 914 1129 908 401 98 634 1155 1415 1155 812 1035 1009 1179 1227 1061 1012 1326 1076 1107 807 763 752 866 999 1101 1030 827 766 642 665 700 687 560 439 387 356 324 208 1 3 3 2 1 0 2 2 4 3 1 0 0 0 0 0 0 0 0 0 0 0 0 0 0 0 0 0
0 0 0 0 0 3 2 1 0 5 75 575 296 285 358 395 239 320 734 455 694 1100 1188 1115 977 1198 1298 1310 1137 1219 969 896 1089 1134 944 1108 1252 1132 1001 766 632 492 487 828 940 892 753 679 709 706 622 570 507 431 361 275 102 2 2 0 4 14 0 0 3 5 3 0 2 1 0 0 0 0 0 0 0 0 0 0 0 0 0 0 0 0
0 0 0 0 0 0 0 2 18 26 221 486 146 9 170 860 869 1002 729 920 889 1070 1058 1009 1377 1412 1280 1190 1149 925 873 812 1025 1184 1145 1328 1131 946 899 795 785 654 499 521 613 702 631 598 681 693 663 617 528 429 337 62 2 2 0 3 2 0 0 0 5 9 2 1 1 0 0 0 0 0 0 0 0 0 0 0 0 0 0 0 0 0
18 24 295 112 2 0 0 87 62 888 965 1042 1201 842 830 674 592 771 923 819 974 796 1127 1064 1208 1250 1060 1100 905 772 811 687 831 1223 1284 1190 1033 770 816 777 762 787 795 798 822 637 479 527 660 722 770 639 550 375 119 1 1 1 2 0 1 0 0 7 10 13 4 0 0 0 0 0 0 0 0 0 0 0 0 0 0 0 0 0 0 0
125 270 787 538 48 62 406 649 317 88 742 766 538 729 625 532 621 661 854 866 758 930 1052 1184 966 1101 990 1000 808 626 646 612 654 981 1061 858 661 583 676 529 491 586 638 738 759 550 498 536 664 719 668 572 375 136 9 3 1 1 0 2 1 0 4 10 11 12 7 0 0 0 0 0 0 0 0 0 0 0 0 0 0 0 0 0 0 0
260 46 36 2 181 20 63 279 694 531 462 732 631 481 494 556 569 617 907 785 787 993 925 987 1142 1007 960 818 787 693 578 477 621 951 593 707 483 468 485 482 530 598 734 853 679 368 561 578 655 606 510 392 189 32 0 4 2 1 2 0 0 5 13 12 4 8 1 0 0 0 0 0 0 0 0 0 0 0 0 0 0 0 0 0 0 0
50 44 85 31 309 98 96 339 507 763 588 689 636 625 731 497 570 557 485 577 699 638 1095 818 785 980 734 716 720 634 558 431 473 664 740 587 507 315 258 345 507 664 826 784 470 328 549 529 541 525 413 218 66 1 2 3 2 2 1 0 0 10 12 13 17 14 4 0 0 0 0 0 0 0 0 0 0 0 0 0 0 0 0 0 0 0
280 0 0 20 88 289 74 208 318 781 720 321 542 684 696 602 600 662 519 636 770 807 777 948 939 835 661 683 579 496 459 462 374 468 394 508 486 295 171 253 573 770 714 736 519 216 416 570 493 357 210 76 2 3 3 2 1 1 1 0 9 9 5 8 14 3 1 0 0 0 0 0 0 0 0 0 0 0 0 0 0 0 0 0 0 0
134 110 146 263 37 138 199 422 430 142 294 646 552 571 733 517 450 599 698 720 732 858 663 757 757 832 620 647 528 428 401 426 450 492 452 340 376 267 150 243 573 846 920 740 504 211 208 239 210 103 69 92 10 2 1 1 0 0 0 5 5 0 0 8 18 4 0 0 0 0 0 0 0 0 0 0 0 0 0 0 0 0 0 0 0 0
160 148 230 65 276 28 406 706 299 396 712 521 560 372 463 400 438 551 545 576 623 531 787 763 671 678 621 535 419 384 380 427 485 412 383 344 292 186 142 321 667 907 950 790 457 177 232 350 194 110 60 64 38 0 1 0 0 2 2 0 0 0 0 0 3 0 0 0 0 0 0 0 0 0 0 0 0 0 0 0 0 0 0 0 0 0
Wind_Speed
nan nan nan nan nan nan nan nan nan nan nan nan nan nan nan nan nan nan nan nan nan nan nan nan nan nan 30 33 29 29 22 22 23 17 18 20 23 25 34 40 44 47 43 43 49 47 44 45 43 39 38 38 39 36 28 27 27 26 28 31 29 24 25 24 26 27 26 24 21 20 17 12 12 15 17 15 15 15 16 14 14 14 14 15 15 14
nan nan nan nan nan nan nan nan nan nan nan nan nan nan nan nan nan nan nan nan nan nan nan nan nan nan nan 28 25 29 22 19 19 18 19 22 24 28 33 39 41 42 39 37 39 40 37 29 30 33 35 39 36 29 27 28 30 30 34 32 26 22 22 21 24 25 25 22 19 18 14 15 13 17 16 16 16 16 15 14 14 15 15 15 16 14
nan nan nan nan nan nan nan nan nan nan nan nan nan nan nan nan nan nan nan nan nan nan nan nan nan nan nan 36 31 28 29 23 24 24 24 23 26 29 29 35 36 36 39 37 35 34 30 26 26 33 36 36 31 21 23 29 29 31 31 26 21 22 21 21 22 21 22 22 15 14 12 11 18 21 19 17 17 15 14 14 15 16 16 15 15 15
nan nan nan nan nan nan nan nan nan nan nan nan nan nan nan nan nan nan nan nan nan nan nan nan nan nan nan 36 35 26 26 22 22 23 25 22 25 27 28 29 26 30 34 34 34 34 30 30 31 34 36 32 25 23 26 28 28 28 30 29 26 23 21 22 21 21 22 18 15 4 8 16 19 21 19 18 16 16 14 15 16 16 16 16 14 14
nan nan nan nan nan nan nan nan nan nan nan nan nan nan nan nan nan nan nan nan nan nan nan nan nan nan nan 25 31 30 27 26 21 19 21 24 24 25 29 27 24 28 30 30 33 33 31 31 29 31 32 27 25 27 25 27 26 26 32 29 23 22 21 21 22 19 20 17 8 7 16 24 22 19 17 16 15 14 15 15 16 16 15 14 15 14
nan nan nan nan nan nan nan nan nan nan nan nan nan nan nan nan nan nan nan nan nan nan nan nan nan nan nan 21 31 29 30 31 33 26 24 24 24 24 24 25 26 30 28 28 30 29 30 34 35 34 34 32 31 26 24 27 27 26 29 26 24 21 21 21 18 16 21 18 11 8 18 19 19 17 16 15 14 15 15 15 16 16 15 15 15 14
nan nan nan nan nan nan nan nan nan nan nan nan nan nan nan nan nan nan nan nan nan nan nan nan nan nan nan 23 30 25 27 33 32 28 28 23 24 23 22 25 27 27 28 26 28 30 28 31 35 34 33 31 29 28 27 26 30 28 24 22 22 20 20 20 17 16 19 14 6 8 17 18 18 18 17 17 16 15 14 15 16 16 17 14 15 15
nan nan nan nan nan nan nan nan nan nan nan nan nan nan nan nan nan nan nan nan nan nan nan nan nan nan nan 23 24 33 27 31 31 28 29 26 26 24 23 26 25 22 26 26 27 27 25 24 28 30 30 27 26 28 28 28 29 26 23 20 20 19 21 22 19 19 20 13 5 16 18 18 18 17 19 18 16 15 15 16 16 16 16 15 15 14
nan nan nan nan nan nan nan nan nan nan nan nan nan nan nan nan nan nan nan nan nan nan nan nan nan nan nan nan 21 33 27 22 24 26 24 23 25 24 22 23 20 21 24 26 25 23 24 23 20 26 26 26 27 27 30 30 26 22 21 20 21 20 22 21 20 22 18 8 12 15 17 19 18 19 18 15 14 15 14 15 15 16 16 15 15 14
nan nan nan nan nan nan nan nan nan nan nan nan nan nan nan nan nan nan nan nan nan nan nan nan nan nan nan nan 25 23 nan nan 19 22 22 23 25 19 20 18 18 21 24 23 25 21 23 23 21 22 24 26 29 32 36 34 27 23 23 23 20 22 22 19 20 20 12 15 17 17 18 20 18 17 16 15 15 15 15 16 15 15 16 15 16 15
nan nan nan nan nan nan nan nan nan nan nan nan nan nan nan nan nan nan nan nan nan nan nan nan nan nan nan nan nan 22 19 nan nan 22 22 24 25 23 22 18 17 20 23 22 23 20 21 24 24 22 23 26 32 33 33 28 25 22 24 21 19 21 18 17 21 17 15 15 17 18 20 20 18 18 15 14 14 14 15 16 16 16 17 16 16 14
nan nan nan nan nan nan nan nan nan nan nan nan nan nan nan nan nan nan nan nan nan nan nan nan nan nan nan nan nan nan nan nan nan 27 22 21 23 24 24 24 21 23 23 23 20 17 20 23 20 20 24 26 28 29 26 23 23 21 20 19 21 16 17 18 19 12 8 13 17 20 21 19 16 15 15 16 15 15 17 17 17 17 18 18 17 16
nan nan nan nan nan nan nan nan nan nan nan nan nan nan nan nan nan nan nan nan nan nan nan nan nan nan nan nan nan nan nan 22 nan nan 24 21 22 25 23 24 21 26 25 24 19 18 18 20 17 17 21 23 25 27 24 22 22 20 16 16 17 17 16 17 13 10 13 15 18 18 17 16 15 15 16 16 15 16 18 18 18 18 19 19 19 19
nan nan nan nan nan nan nan nan nan nan nan nan nan nan nan nan nan nan nan nan nan nan nan nan nan nan nan nan nan nan 25 23 nan 22 nan nan 27 23 22 25 24 28 25 22 19 18 18 18 16 16 17 20 25 27 22 19 22 20 17 16 14 13 10 12 16 19 17 16 16 16 16 15 15 16 16 17 17 19 nan 19 21 nan nan nan 20 21
nan nan nan nan nan nan nan nan nan nan nan nan nan nan nan nan nan nan nan nan nan nan nan nan nan nan nan nan nan nan nan nan nan nan nan 32 31 27 29 32 25 27 27 21 17 17 17 17 19 17 16 18 24 24 22 20 21 21 19 18 19 19 17 21 22 20 20 17 15 16 16 17 16 17 17 18 nan 20 21 21 nan nan nan nan nan nan
nan nan nan nan nan nan nan nan nan nan nan nan nan nan nan nan nan nan nan nan nan nan nan nan nan nan nan 38 nan nan nan nan nan nan nan 46 37 29 26 31 26 25 25 19 18 18 17 20 20 20 19 21 24 26 26 25 22 22 22 24 23 27 30 27 24 22 20 18 17 18 20 19 20 20 20 20 nan nan nan nan nan nan nan nan nan nan
nan nan nan nan nan nan nan nan nan nan nan nan nan nan nan nan nan nan nan nan nan nan nan nan nan nan nan 27 nan nan nan 25 22 24 nan 41 35 23 27 31 27 27 24 21 21 20 20 22 22 23 24 27 28 25 27 27 26 27 24 25 27 32 31 27 25 23 20 20 20 21 22 22 22 22 23 23 nan nan nan nan nan nan nan nan nan nan
nan nan nan nan nan nan nan nan nan nan nan nan nan nan nan nan nan nan nan nan nan nan nan nan nan nan nan nan nan nan nan nan nan nan 24 39 33 24 29 26 25 24 22 20 24 21 23 23 24 27 28 31 32 33 33 32 31 29 27 29 32 31 30 27 25 22 21 21 23 23 24 24 23 23 24 nan nan nan nan nan nan nan nan nan nan nan
nan nan nan nan nan nan nan nan nan nan nan nan nan nan nan nan nan nan nan nan nan nan nan nan nan nan nan nan nan nan nan nan nan nan nan 35 34 25 23 24 25 25 24 22 24 23 24 25 26 29 30 30 33 36 39 35 33 32 31 32 31 29 28 26 23 21 22 23 nan 23 24 24 24 25 24 nan nan nan nan nan nan nan nan nan nan nan
nan nan nan nan nan nan nan nan nan nan nan nan nan nan nan nan nan nan nan nan nan nan nan nan nan nan nan nan nan nan nan nan nan nan nan 26 32 21 26 27 26 27 22 21 24 24 26 27 28 31 31 32 35 39 38 36 33 34 33 33 31 29 26 25 23 23 24 24 24 24 24 25 26 26 nan nan nan nan nan nan nan nan nan nan nan nan
nan nan nan nan nan nan nan nan nan nan nan nan nan nan nan nan nan nan nan nan nan nan nan nan nan nan nan nan nan nan 19 nan nan nan nan 26 27 23 25 26 25 24 22 21 23 24 24 26 30 31 32 32 34 33 31 30 31 32 32 32 30 28 26 24 23 24 24 23 nan 24 25 25 25 nan nan nan nan nan nan nan nan nan nan nan nan nan
nan nan nan nan nan nan nan nan nan nan nan nan nan nan nan nan nan nan nan nan nan nan nan nan nan nan nan nan nan nan nan 20 nan 25 nan 27 25 24 25 26 24 20 19 20 22 23 23 26 29 31 29 27 25 23 24 27 30 30 30 28 27 26 24 23 22 22 23 nan nan 24 24 26 26 nan nan nan nan nan nan nan nan nan nan nan nan nan
nan nan nan nan nan nan nan nan nan nan nan nan nan nan nan nan nan nan nan nan nan nan nan nan nan nan 32 nan nan 24 26 nan 24 28 29 27 26 25 26 25 21 19 20 21 23 24 25 27 28 28 24 20 20 21 23 25 26 28 27 26 25 24 23 22 21 21 22 nan nan 24 25 27 nan nan nan nan nan nan nan nan nan nan nan nan nan nan
nan nan nan nan nan nan nan nan nan nan nan nan nan nan nan nan nan nan nan nan nan nan nan nan nan 26 30 32 21 22 28 29 33 30 27 29 29 25 24 23 19 17 20 24 25 26 26 28 28 25 23 20 19 22 23 21 22 24 24 23 24 23 23 22 22 22 23 23 24 25 26 nan nan nan nan nan nan nan nan nan nan nan nan nan nan nan
nan nan nan nan nan nan nan nan nan nan nan nan nan nan nan nan nan nan nan nan nan nan nan nan nan nan 24 24 21 15 20 22 27 27 25 26 27 24 25 21 17 17 20 23 23 26 27 27 26 25 27 26 25 25 24 22 23 24 24 24 24 23 22 22 22 22 22 23 24 24 25 nan nan nan nan nan nan nan nan nan nan nan nan nan nan nan
nan nan nan nan nan nan nan nan nan nan nan nan nan nan nan nan nan nan nan nan nan nan nan nan nan 29 25 23 18 15 17 22 25 27 25 25 24 27 25 21 18 21 19 21 23 24 24 24 24 25 27 28 28 29 27 25 25 26 26 27 26 24 23 22 21 21 21 22 23 23 nan nan nan nan nan nan nan nan nan nan nan nan nan nan nan nan
nan nan nan nan nan nan nan nan nan nan nan nan nan nan nan nan nan nan nan nan nan nan nan nan nan 33 22 23 18 16 20 24 25 27 27 30 26 23 22 19 18 19 19 22 22 23 24 24 25 27 28 29 31 31 29 27 26 26 28 29 28 26 25 24 22 22 22 22 22 24 nan nan nan nan nan nan nan nan nan nan nan nan nan nan nan nan
nan nan nan nan nan nan nan nan nan nan nan nan nan nan nan nan nan nan nan nan nan nan nan nan nan nan 30 20 20 18 21 25 26 28 28 27 22 21 20 22 21 21 22 23 23 23 24 26 29 32 32 33 33 33 30 27 27 29 30 31 28 26 25 24 23 23 23 nan 24 nan nan nan nan nan nan nan nan nan nan nan nan nan nan nan nan nan
nan nan nan nan nan nan nan nan nan nan nan nan nan nan nan nan nan nan nan nan nan nan nan nan nan nan 27 22 20 19 19 24 25 28 29 27 26 23 22 21 19 18 16 19 23 24 26 30 32 34 34 33 34 34 33 31 30 31 32 31 28 24 23 23 23 23 24 nan nan nan nan nan nan nan nan nan nan nan nan nan nan nan nan nan nan nan
nan nan nan nan nan nan nan nan nan nan nan nan nan nan nan nan nan nan nan nan nan nan nan nan nan nan nan 27 nan 19 20 25 27 32 29 25 22 19 20 18 19 16 14 17 22 26 30 33 35 35 34 34 34 34 34 33 32 32 33 32 29 25 23 24 24 24 26 28 28 28 nan nan nan nan nan nan nan nan nan nan nan nan nan nan nan nan
nan nan nan nan nan nan nan nan nan nan nan nan nan nan nan nan nan nan nan nan nan nan nan nan nan nan nan 33 23 23 18 21 17 20 23 23 22 20 18 18 18 16 16 21 23 27 33 36 37 37 37 37 36 36 38 37 34 35 34 32 31 29 27 27 27 27 28 29 30 31 33 nan nan nan nan nan nan nan nan nan nan nan nan nan nan nan
nan nan nan nan nan nan nan nan nan nan nan nan nan nan nan nan nan nan nan nan nan nan nan nan nan nan nan 39 30 22 18 14 13 16 20 24 22 21 21 18 20 21 21 22 24 27 32 36 38 39 38 37 37 41 42 39 38 37 36 33 33 nan 29 29 28 28 29 30 32 33 35 36 nan nan nan nan nan nan nan nan nan nan nan nan nan nan
nan nan nan nan nan nan nan nan nan nan nan nan nan nan nan nan nan nan nan nan nan nan nan nan nan nan 26 33 27 20 16 13 15 16 19 22 23 21 22 24 22 22 25 27 27 28 34 38 41 42 40 39 37 40 43 41 40 38 37 35 33 30 29 29 29 29 31 32 33 34 35 nan nan nan nan nan nan nan nan nan nan nan nan nan nan nan
nan nan nan nan nan nan nan nan nan nan nan nan 41 38 nan nan nan nan nan nan nan nan nan nan nan nan 32 30 20 20 18 16 17 20 20 21 22 20 22 22 23 24 26 26 26 29 32 34 36 35 36 38 39 41 40 39 37 36 35 34 33 31 31 31 31 32 33 34 34 35 36 nan nan nan nan nan nan nan nan nan nan nan nan nan nan nan
nan nan nan nan nan nan nan nan nan nan nan 40 38 43 46 44 nan nan nan nan nan nan nan nan nan 32 35 28 23 24 25 25 24 23 22 22 23 22 23 21 22 25 27 29 29 31 32 32 33 36 36 37 37 37 37 35 35 35 34 34 33 32 32 33 34 34 33 34 35 36 36 nan nan nan nan nan nan nan nan nan nan nan nan nan nan nan
nan nan nan nan nan nan nan nan nan nan 36 31 36 39 41 39 42 34 nan nan nan nan nan nan nan nan 30 31 31 31 30 28 26 24 24 23 23 24 22 20 22 24 27 29 32 31 31 32 34 34 35 36 36 35 34 33 32 33 34 34 34 33 34 35 35 35 34 35 36 36 nan nan nan nan nan nan nan nan nan nan nan nan nan nan nan nan
nan nan nan nan nan nan nan nan nan nan 26 28 29 27 nan nan nan nan nan nan nan nan nan nan nan nan 32 34 30 30 30 29 27 26 23 22 22 23 22 21 21 23 27 32 33 33 33 34 34 33 34 35 35 35 33 31 31 32 33 33 32 34 35 36 35 35 36 37 38 nan nan nan nan nan nan nan nan nan nan nan nan nan nan nan nan nan
nan nan nan nan nan nan nan nan nan nan nan 23 27 29 28 32 nan nan nan nan nan nan nan nan nan nan 32 34 31 29 28 26 25 23 20 21 21 22 23 24 23 25 31 34 31 34 35 34 33 35 34 35 34 33 32 30 30 30 30 31 33 36 37 36 nan nan nan nan nan nan nan nan nan nan nan nan nan nan nan nan nan nan nan nan nan nan
nan nan nan nan nan nan nan nan nan nan nan 24 25 26 28 31 27 31 nan nan nan nan nan nan nan nan 31 32 29 29 25 22 22 24 22 20 21 21 23 26 26 28 31 31 30 34 34 35 36 37 36 35 33 31 31 31 30 30 31 32 35 nan nan nan nan nan nan nan nan nan nan nan nan nan nan nan nan nan nan nan nan nan nan nan nan nan
nan nan nan nan nan nan nan nan nan nan nan 21 20 22 26 25 31 27 nan nan nan nan nan nan nan 27 31 30 28 26 24 27 30 29 27 23 22 23 24 26 27 29 30 31 31 37 40 39 36 35 33 32 32 31 30 30 29 31 33 34 nan nan nan nan nan nan nan nan nan nan nan nan nan nan nan nan nan nan nan nan nan nan nan nan nan nan
nan nan nan nan nan nan nan nan nan nan 27 24 25 23 26 26 24 nan nan 36 39 34 27 24 23 26 30 28 27 27 37 38 36 33 30 27 26 25 25 27 26 27 30 31 35 37 36 35 32 32 31 31 31 30 29 29 31 33 35 nan nan nan nan nan nan nan nan nan nan nan nan nan nan nan nan nan nan nan nan nan nan nan nan nan nan nan
nan nan nan nan nan nan nan nan nan nan 24 24 26 25 23 24 nan nan 36 31 33 30 30 27 nan 28 29 27 29 35 39 39 39 34 29 28 29 27 28 28 28 29 30 35 37 36 34 31 29 30 31 31 29 30 30 31 33 35 nan nan nan nan nan nan nan nan nan nan nan nan nan nan nan nan nan nan nan nan nan nan nan nan nan nan nan nan
nan nan nan nan nan nan nan nan nan nan nan 17 25 23 24 23 31 33 32 36 32 32 30 32 30 30 28 29 35 41 38 36 32 35 30 31 32 32 32 32 30 33 35 38 37 35 32 31 31 31 30 29 29 29 30 33 35 nan nan nan nan nan nan nan nan nan nan nan nan nan nan nan nan nan nan nan nan nan nan nan nan nan nan nan nan nan
nan nan nan nan nan nan nan nan nan nan 26 19 18 nan 22 27 30 31 32 34 35 33 32 32 33 32 31 31 35 37 36 34 33 35 33 36 36 38 38 37 36 39 38 37 37 35 30 32 33 33 30 29 29 31 32 nan nan nan nan nan nan nan nan nan nan nan nan nan nan nan nan nan nan nan nan nan nan nan nan nan nan nan nan nan nan nan
nan nan 27 23 nan nan nan nan nan 34 34 29 29 27 26 27 27 29 32 33 33 34 34 34 34 32 31 31 34 35 33 30 33 39 36 36 38 37 39 40 37 37 37 36 36 35 33 33 35 34 32 30 32 32 34 nan nan nan nan nan nan nan nan nan nan nan nan nan nan nan nan nan nan nan nan nan nan nan nan nan nan nan nan nan nan nan
20 23 22 22 nan nan 29 31 31 nan 29 29 30 30 29 28 28 28 28 30 34 36 36 35 34 32 31 31 34 32 33 31 36 35 34 34 36 36 39 38 37 37 36 36 36 34 35 35 34 34 33 32 33 34 nan nan nan nan nan nan nan nan nan nan nan nan nan nan nan nan nan nan nan nan nan nan nan nan nan nan nan nan nan nan nan nan
19 nan nan nan 26 nan nan 23 29 30 28 29 31 31 32 32 33 30 30 32 34 35 37 36 35 33 31 33 31 32 32 30 32 32 31 33 34 36 36 35 35 36 36 35 36 36 38 36 34 33 32 33 34 nan nan nan nan nan nan nan nan nan nan nan nan nan nan nan nan nan nan nan nan nan nan nan nan nan nan nan nan nan nan nan nan nan
nan nan nan nan 19 nan nan 29 31 29 30 29 31 32 31 34 34 34 33 32 31 32 33 37 35 34 35 32 32 31 32 30 29 30 30 30 31 35 35 33 34 34 34 36 36 33 37 35 33 33 35 36 nan nan nan nan nan nan nan nan nan nan nan nan nan nan nan nan nan nan nan nan nan nan nan nan nan nan nan nan nan nan nan nan nan nan
23 nan nan nan nan 27 nan 30 30 33 32 32 31 36 38 36 36 35 36 35 33 31 31 32 34 33 33 33 32 33 31 30 29 30 29 30 30 32 31 31 32 33 35 37 35 31 33 35 35 35 36 nan nan nan nan nan nan nan nan nan nan nan nan nan nan nan nan nan nan nan nan nan nan nan nan nan nan nan nan nan nan nan nan nan nan nan
15 15 19 17 nan 19 24 25 29 29 31 34 33 32 33 35 33 34 34 37 36 32 30 28 28 31 29 31 30 29 29 28 28 29 29 27 27 29 28 28 28 30 34 36 35 34 36 37 37 35 nan nan nan nan nan nan nan nan nan nan nan nan nan nan nan nan nan nan nan nan nan nan nan nan nan nan nan nan nan nan nan nan nan nan nan nan
21 21 25 nan 21 nan 20 20 27 28 34 37 35 35 35 34 31 30 31 32 33 33 32 30 28 26 26 26 27 25 24 25 26 29 29 27 27 28 26 25 25 26 29 35 39 38 37 39 39 37 nan nan nan nan nan nan nan nan nan nan nan nan nan nan nan nan nan nan nan nan nan nan nan nan nan nan nan nan nan nan nan nan nan nan nan nan
Wind_Direction
nan nan nan nan nan nan nan nan nan nan nan nan nan nan nan nan nan nan nan nan nan nan nan nan nan nan 254 259 252 251 235 228 240 234 230 235 236 241 242 243 241 236 228 219 225 229 230 223 219 218 230 232 232 226 231 237 239 241 243 242 242 237 243 253 255 260 262 254 242 246 247 254 254 266 263 263 263 261 262 265 268 269 274 277 279 285
nan nan nan nan nan nan nan nan nan nan nan nan nan nan nan nan nan nan nan nan nan nan nan nan nan nan nan 263 261 261 262 246 244 235 228 233 238 243 254 251 252 256 243 232 231 240 242 238 240 238 230 233 227 216 214 233 235 234 241 239 233 243 245 251 259 260 256 247 227 232 244 255 276 273 270 267 261 257 260 265 264 267 269 273 278 283
nan nan nan nan nan nan nan nan nan nan nan nan nan nan nan nan nan nan nan nan nan nan nan nan nan nan nan 256 256 255 257 246 233 232 224 232 240 243 249 253 253 252 246 238 239 240 240 243 245 239 243 247 245 236 229 230 239 239 244 252 255 254 255 251 253 249 250 234 216 211 222 258 258 252 254 258 260 260 261 260 262 262 267 274 281 289
nan nan nan nan nan nan nan nan nan nan nan nan nan nan nan nan nan nan nan nan nan nan nan nan nan nan nan 256 264 250 250 242 233 227 231 227 241 246 248 251 254 256 247 246 250 250 250 246 241 239 244 251 255 251 239 235 246 244 247 250 256 258 260 260 254 241 235 227 198 206 267 262 258 258 257 256 260 258 261 262 260 266 272 278 285 287
nan nan nan nan nan nan nan nan nan nan nan nan nan nan nan nan nan nan nan nan nan nan nan nan nan nan nan 250 258 267 275 264 248 241 244 241 244 244 250 249 246 255 259 256 254 259 263 258 250 251 249 248 248 252 245 242 245 244 252 255 257 260 262 260 257 241 239 228 198 222 257 258 258 258 259 260 257 259 258 264 267 270 273 277 284 288
nan nan nan nan nan nan nan nan nan nan nan nan nan nan nan nan nan nan nan nan nan nan nan nan nan nan nan 252 248 254 251 261 263 260 257 255 249 249 255 257 249 251 261 266 267 267 263 257 256 257 257 256 256 259 248 242 241 240 246 252 262 262 259 260 256 243 239 229 194 252 269 264 258 258 262 259 261 263 266 266 270 275 274 279 284 293
nan nan nan nan nan nan nan nan nan nan nan nan nan nan nan nan nan nan nan nan nan nan nan nan nan nan nan 247 258 251 251 254 252 251 252 246 243 242 243 250 250 255 260 262 265 269 268 261 262 266 269 269 271 267 258 250 243 240 248 254 256 256 256 258 254 251 242 227 202 259 259 254 254 258 258 256 253 257 264 271 274 277 280 282 290 294
nan nan nan nan nan nan nan nan nan nan nan nan nan nan nan nan nan nan nan nan nan nan nan nan nan nan nan 255 259 258 244 246 244 244 241 233 232 236 238 244 248 252 261 269 275 272 269 264 267 274 273 271 269 265 257 251 247 251 250 246 243 244 249 246 254 253 252 243 248 258 252 246 248 251 257 259 262 263 265 275 275 282 287 289 293 299
nan nan nan nan nan nan nan nan nan nan nan nan nan nan nan nan nan nan nan nan nan nan nan nan nan nan nan nan 254 264 253 245 242 243 245 236 231 230 233 239 246 256 263 267 266 268 268 271 270 272 268 259 259 264 262 259 253 252 252 244 238 237 241 244 246 248 248 245 256 250 243 245 249 254 260 265 268 273 274 275 280 284 288 295 293 292
nan nan nan nan nan nan nan nan nan nan nan nan nan nan nan nan nan nan nan nan nan nan nan nan nan nan nan nan 246 264 nan nan 258 247 247 250 242 232 232 230 243 256 260 260 261 262 262 265 266 258 250 248 254 266 268 262 256 251 248 245 241 242 235 232 245 242 241 255 248 241 239 245 252 259 265 268 272 274 278 280 283 287 291 291 289 289
nan nan nan nan nan nan nan nan nan nan nan nan nan nan nan nan nan nan nan nan nan nan nan nan nan nan nan nan nan 245 258 nan nan 252 238 249 256 251 251 244 241 250 259 257 258 263 263 260 259 258 255 255 261 263 261 257 256 246 248 247 240 238 244 244 239 225 228 244 240 239 241 247 259 264 269 272 270 275 278 283 287 288 285 281 282 288
nan nan nan nan nan nan nan nan nan nan nan nan nan nan nan nan nan nan nan nan nan nan nan nan nan nan nan nan nan nan nan nan nan 274 263 247 245 239 239 240 240 251 252 253 258 264 265 262 256 255 263 266 267 261 257 249 247 244 240 240 239 229 246 242 237 229 242 244 239 239 242 246 254 264 264 267 273 278 279 282 285 284 282 282 285 284
nan nan nan nan nan nan nan nan nan nan nan nan nan nan nan nan nan nan nan nan nan nan nan nan nan nan nan nan nan nan nan 248 nan nan 277 271 260 246 240 245 237 249 247 244 255 259 257 256 250 251 268 270 267 255 255 257 256 250 237 238 232 235 226 233 251 269 264 249 242 244 246 248 253 258 264 271 277 280 281 280 278 277 279 279 280 280
nan nan nan nan nan nan nan nan nan nan nan nan nan nan nan nan nan nan nan nan nan nan nan nan nan nan nan nan nan nan 245 241 nan 253 nan nan 276 269 260 250 240 244 244 246 256 250 248 246 238 253 270 272 259 265 267 266 263 259 259 256 251 243 220 252 268 265 259 251 247 247 251 255 261 263 268 273 274 273 nan 276 277 nan nan nan 283 280
nan nan nan nan nan nan nan nan nan nan nan nan nan nan nan nan nan nan nan nan nan nan nan nan nan nan nan nan nan nan nan nan nan nan nan 270 270 266 260 255 247 247 238 249 253 246 243 244 240 244 259 272 274 279 273 266 269 265 269 271 275 279 279 268 265 264 262 258 255 253 256 259 264 268 268 267 nan 266 272 273 nan nan nan nan nan nan
nan nan nan nan nan nan nan nan nan nan nan nan nan nan nan nan nan nan nan nan nan nan nan nan nan nan nan 211 nan nan nan nan nan nan nan 259 258 260 258 260 264 258 253 252 255 246 246 247 242 243 253 269 277 291 284 282 276 272 270 274 276 275 271 269 269 266 265 260 253 252 255 260 263 265 269 273 nan nan nan nan nan nan nan nan nan nan
nan nan nan nan nan nan nan nan nan nan nan nan nan nan nan nan nan nan nan nan nan nan nan nan nan nan nan 219 nan nan nan 245 243 232 nan 256 270 279 268 268 267 254 257 258 256 245 244 244 241 245 253 259 270 279 282 281 279 275 271 272 273 266 264 266 264 265 262 260 261 259 260 263 267 268 265 266 nan nan nan nan nan nan nan nan nan nan
nan nan nan nan nan nan nan nan nan nan nan nan nan nan nan nan nan nan nan nan nan nan nan nan nan nan nan nan nan nan nan nan nan nan 249 259 258 265 265 266 263 261 260 259 256 248 245 242 246 245 250 257 264 271 276 276 272 268 264 266 265 265 266 263 263 263 263 261 260 262 262 262 263 265 267 nan nan nan nan nan nan nan nan nan nan nan
nan nan nan nan nan nan nan nan nan nan nan nan nan nan nan nan nan nan nan nan nan nan nan nan nan nan nan nan nan nan nan nan nan nan nan 263 260 265 266 271 273 266 265 266 258 249 244 242 246 248 253 256 263 268 275 274 269 266 266 265 265 265 262 260 257 258 257 259 nan 260 262 264 265 267 268 nan nan nan nan nan nan nan nan nan nan nan
nan nan nan nan nan nan nan nan nan nan nan nan nan nan nan nan nan nan nan nan nan nan nan nan nan nan nan nan nan nan nan nan nan nan nan 263 277 274 275 275 274 268 267 265 257 253 244 246 249 249 250 256 266 271 269 267 265 267 266 266 265 263 258 256 255 254 254 255 258 261 263 264 265 266 nan nan nan nan nan nan nan nan nan nan nan nan
nan nan nan nan nan nan nan nan nan nan nan nan nan nan nan nan nan nan nan nan nan nan nan nan nan nan nan nan nan nan 256 nan nan nan nan 256 267 275 273 273 268 267 263 259 255 256 254 251 250 249 254 263 267 266 266 266 268 267 266 267 266 263 258 255 252 252 252 255 nan 262 263 265 268 nan nan nan nan nan nan nan nan nan nan nan nan nan
nan nan nan nan nan nan nan nan nan nan nan nan nan nan nan nan nan nan nan nan nan nan nan nan nan nan nan nan nan nan nan 245 nan 247 nan 250 259 261 259 262 262 258 257 253 251 255 256 254 253 254 257 265 264 265 268 268 268 268 267 264 263 261 259 257 253 252 253 nan nan 260 263 267 272 nan nan nan nan nan nan nan nan nan nan nan nan nan
nan nan nan nan nan nan nan nan nan nan nan nan nan nan nan nan nan nan nan nan nan nan nan nan nan nan 236 nan nan 239 244 nan 245 243 243 246 251 254 253 253 251 248 242 244 248 249 251 254 258 258 261 261 259 264 275 273 269 266 263 262 262 261 260 257 253 253 253 nan nan 263 266 269 nan nan nan nan nan nan nan nan nan nan nan nan nan nan
nan nan nan nan nan nan nan nan nan nan nan nan nan nan nan nan nan nan nan nan nan nan nan nan nan 231 232 235 237 241 240 236 239 237 234 242 241 245 253 248 239 237 233 242 241 242 250 254 255 250 245 251 270 284 281 273 269 266 261 260 261 261 260 257 255 256 258 259 264 266 270 nan nan nan nan nan nan nan nan nan nan nan nan nan nan nan
nan nan nan nan nan nan nan nan nan nan nan nan nan nan nan nan nan nan nan nan nan nan nan nan nan nan 253 241 237 243 256 250 248 250 237 237 248 250 255 245 233 234 238 242 248 248 251 259 266 257 248 256 277 287 281 274 270 267 263 262 262 260 257 256 256 260 263 264 269 272 277 nan nan nan nan nan nan nan nan nan nan nan nan nan nan nan
nan nan nan nan nan nan nan nan nan nan nan nan nan nan nan nan nan nan nan nan nan nan nan nan nan 235 250 251 243 243 252 251 248 248 257 250 249 252 254 254 245 239 241 250 252 254 264 266 262 259 254 257 271 279 281 277 273 267 264 262 260 259 258 258 260 265 269 271 275 279 nan nan nan nan nan nan nan nan nan nan nan nan nan nan nan nan
nan nan nan nan nan nan nan nan nan nan nan nan nan nan nan nan nan nan nan nan nan nan nan nan nan 239 247 253 246 246 244 249 242 243 241 244 242 247 255 255 251 242 245 250 252 254 258 262 265 264 259 258 267 273 274 276 274 270 264 262 260 259 259 259 263 267 268 275 281 283 nan nan nan nan nan nan nan nan nan nan nan nan nan nan nan nan
nan nan nan nan nan nan nan nan nan nan nan nan nan nan nan nan nan nan nan nan nan nan nan nan nan nan 243 242 243 237 238 238 233 234 236 241 239 247 247 249 246 236 230 235 248 258 263 261 263 263 261 262 265 270 272 273 272 269 265 263 262 261 260 262 267 269 271 nan 280 nan nan nan nan nan nan nan nan nan nan nan nan nan nan nan nan nan
nan nan nan nan nan nan nan nan nan nan nan nan nan nan nan nan nan nan nan nan nan nan nan nan nan nan 246 247 237 237 237 232 225 228 230 241 245 247 252 255 253 250 244 238 244 250 256 259 261 263 263 264 267 270 270 265 266 266 264 264 265 263 263 266 269 271 275 nan nan nan nan nan nan nan nan nan nan nan nan nan nan nan nan nan nan nan
nan nan nan nan nan nan nan nan nan nan nan nan nan nan nan nan nan nan nan nan nan nan nan nan nan nan nan 249 nan 250 245 237 213 223 226 238 244 246 243 244 250 256 257 250 247 248 251 256 260 261 263 264 267 264 261 262 262 262 265 266 264 262 262 266 270 273 274 274 275 278 nan nan nan nan nan nan nan nan nan nan nan nan nan nan nan nan
nan nan nan nan nan nan nan nan nan nan nan nan nan nan nan nan nan nan nan nan nan nan nan nan nan nan nan 238 242 251 249 250 231 224 228 234 243 248 247 243 242 253 258 260 258 254 254 258 258 258 259 262 264 262 258 253 256 258 260 265 267 265 265 267 270 271 273 275 278 279 280 nan nan nan nan nan nan nan nan nan nan nan nan nan nan nan
nan nan nan nan nan nan nan nan nan nan nan nan nan nan nan nan nan nan nan nan nan nan nan nan nan nan nan 244 239 247 253 260 259 248 235 234 237 245 250 252 241 242 255 259 261 262 259 259 257 251 255 259 263 261 260 259 259 260 264 261 260 nan 267 270 273 277 277 279 281 282 283 284 nan nan nan nan nan nan nan nan nan nan nan nan nan nan
nan nan nan nan nan nan nan nan nan nan nan nan nan nan nan nan nan nan nan nan nan nan nan nan nan nan 238 248 243 245 251 248 247 240 238 238 241 241 243 246 252 251 241 245 252 261 257 253 250 250 252 258 266 267 265 262 259 263 268 267 267 272 277 281 286 287 286 286 286 286 286 nan nan nan nan nan nan nan nan nan nan nan nan nan nan nan
nan nan nan nan nan nan nan nan nan nan nan nan 219 215 nan nan nan nan nan nan nan nan nan nan nan nan 233 241 236 244 244 241 233 229 227 231 236 238 239 246 247 251 247 249 258 262 261 254 251 252 258 263 265 271 275 271 267 267 269 271 276 281 285 290 293 293 291 290 289 289 288 nan nan nan nan nan nan nan nan nan nan nan nan nan nan nan
nan nan nan nan nan nan nan nan nan nan nan 218 216 221 220 220 nan nan nan nan nan nan nan nan nan 221 233 230 223 232 232 233 229 229 226 231 233 232 238 239 245 250 253 257 259 262 266 261 256 257 260 263 267 271 274 273 269 269 269 272 277 280 284 288 291 292 290 289 289 288 287 nan nan nan nan nan nan nan nan nan nan nan nan nan nan nan
nan nan nan nan nan nan nan nan nan nan 218 218 218 219 220 225 226 228 nan nan nan nan nan nan nan nan 231 232 232 232 234 237 234 228 230 229 228 235 237 239 249 255 261 263 264 264 259 259 260 261 261 264 269 271 272 272 274 273 273 275 277 278 283 288 291 290 289 288 289 288 nan nan nan nan nan nan nan nan nan nan nan nan nan nan nan nan
nan nan nan nan nan nan nan nan nan nan 221 227 221 224 nan nan nan nan nan nan nan nan nan nan nan nan 237 239 237 236 237 236 235 232 233 237 234 235 240 243 250 254 257 259 259 257 253 254 257 259 262 266 269 271 272 275 277 276 276 277 277 280 285 289 290 290 290 289 288 nan nan nan nan nan nan nan nan nan nan nan nan nan nan nan nan nan
nan nan nan nan nan nan nan nan nan nan nan 231 223 228 231 219 nan nan nan nan nan nan nan nan nan nan 240 241 243 245 243 239 236 236 237 243 243 240 239 242 246 249 248 254 256 257 255 254 258 261 264 270 271 271 270 272 274 275 275 276 279 283 287 288 nan nan nan nan nan nan nan nan nan nan nan nan nan nan nan nan nan nan nan nan nan nan
nan nan nan nan nan nan nan nan nan nan nan 212 233 233 232 224 225 232 nan nan nan nan nan nan nan nan 242 244 249 251 243 234 235 238 245 247 249 246 246 247 247 250 248 252 257 262 262 261 264 266 268 270 271 269 269 270 272 272 274 276 279 nan nan nan nan nan nan nan nan nan nan nan nan nan nan nan nan nan nan nan nan nan nan nan nan nan
nan nan nan nan nan nan nan nan nan nan nan 232 236 236 227 225 227 232 nan nan nan nan nan nan nan 242 246 247 251 247 236 227 227 240 251 253 251 249 248 252 254 254 254 254 254 255 258 262 266 269 269 268 267 268 268 270 270 271 274 276 nan nan nan nan nan nan nan nan nan nan nan nan nan nan nan nan nan nan nan nan nan nan nan nan nan nan
nan nan nan nan nan nan nan nan nan nan 226 232 235 231 227 220 226 nan nan 226 215 214 229 238 238 242 246 245 242 238 232 233 233 244 259 259 255 251 254 257 258 261 260 257 255 255 257 261 267 270 269 264 267 268 269 269 269 272 276 nan nan nan nan nan nan nan nan nan nan nan nan nan nan nan nan nan nan nan nan nan nan nan nan nan nan nan
nan nan nan nan nan nan nan nan nan nan 226 239 234 232 226 226 nan nan 225 222 217 218 227 228 nan 242 243 241 232 233 236 232 235 251 255 262 262 261 261 263 265 262 261 250 251 257 260 260 263 264 264 265 267 268 267 268 271 274 nan nan nan nan nan nan nan nan nan nan nan nan nan nan nan nan nan nan nan nan nan nan nan nan nan nan nan nan
nan nan nan nan nan nan nan nan nan nan nan 232 246 228 218 211 220 215 226 225 219 220 226 233 237 242 242 241 236 238 239 239 245 252 255 260 262 262 262 264 262 260 258 256 261 261 265 267 266 264 264 265 266 264 266 270 274 nan nan nan nan nan nan nan nan nan nan nan nan nan nan nan nan nan nan nan nan nan nan nan nan nan nan nan nan nan
nan nan nan nan nan nan nan nan nan nan 232 235 229 nan 227 221 223 221 221 228 223 223 228 232 236 239 240 242 242 240 239 240 246 254 257 259 259 257 257 255 256 257 258 261 266 268 267 265 265 266 266 263 264 263 265 nan nan nan nan nan nan nan nan nan nan nan nan nan nan nan nan nan nan nan nan nan nan nan nan nan nan nan nan nan nan nan
nan nan 201 196 nan nan nan nan nan 216 224 223 225 232 228 228 225 219 221 226 227 227 222 228 236 238 239 243 245 243 242 239 247 256 257 260 259 262 261 256 260 264 266 268 269 270 268 263 264 265 267 264 266 265 268 nan nan nan nan nan nan nan nan nan nan nan nan nan nan nan nan nan nan nan nan nan nan nan nan nan nan nan nan nan nan nan
203 193 202 195 nan nan 217 216 223 nan 224 229 225 225 228 226 222 217 220 231 231 229 226 230 237 240 241 245 248 246 245 244 250 258 258 260 261 261 258 260 259 261 266 267 268 269 269 266 263 264 266 267 268 268 nan nan nan nan nan nan nan nan nan nan nan nan nan nan nan nan nan nan nan nan nan nan nan nan nan nan nan nan nan nan nan nan
201 nan nan nan 219 nan nan 216 225 224 227 230 230 229 228 224 220 213 217 224 229 229 232 232 234 238 239 243 246 249 249 248 253 258 258 258 261 262 264 269 269 266 270 273 274 268 270 269 266 266 266 267 266 nan nan nan nan nan nan nan nan nan nan nan nan nan nan nan nan nan nan nan nan nan nan nan nan nan nan nan nan nan nan nan nan nan
nan nan nan nan 216 nan nan 230 225 224 225 227 227 229 233 230 226 220 216 218 224 229 230 232 232 234 239 242 245 248 251 251 254 257 257 258 261 263 265 267 273 269 270 268 261 261 267 270 271 271 270 268 nan nan nan nan nan nan nan nan nan nan nan nan nan nan nan nan nan nan nan nan nan nan nan nan nan nan nan nan nan nan nan nan nan nan
201 nan nan nan nan 230 nan 229 230 229 228 228 226 224 223 226 227 223 220 222 224 228 230 231 227 233 234 237 242 245 248 252 251 254 255 252 258 259 262 264 268 273 273 273 271 267 267 270 273 274 272 nan nan nan nan nan nan nan nan nan nan nan nan nan nan nan nan nan nan nan nan nan nan nan nan nan nan nan nan nan nan nan nan nan nan nan
179 190 200 202 nan 216 214 218 221 224 227 232 232 228 232 229 223 223 225 227 226 228 228 228 231 229 231 236 240 240 245 245 249 252 254 254 256 263 262 263 266 267 268 271 263 263 263 267 271 271 nan nan nan nan nan nan nan nan nan nan nan nan nan nan nan nan nan nan nan nan nan nan nan nan nan nan nan nan nan nan nan nan nan nan nan nan
196 200 191 nan 203 nan 227 221 231 228 225 226 228 226 224 226 225 224 226 225 228 225 224 230 233 236 237 236 240 243 245 245 250 252 251 252 256 256 258 266 268 270 269 266 268 265 262 265 268 271 nan nan nan nan nan nan nan nan nan nan nan nan nan nan nan nan nan nan nan nan nan nan nan nan nan nan nan nan nan nan nan nan nan nan nan nan